| time (UTC) | temp F | wind direction | speed knots | gust knots | rain 1hr in | rain 24hr in | rain mn in | humidity % | barometer mb |
| 20260509213105 | 60 | 109 | 0.9 | 1.7 | 0.00 | 0.00 | 0.00 | 99 | 1020.8 |
| 20260509211304 | 58 | 228 | 0.9 | 1.7 | 0.00 | 0.00 | 0.00 | 99 | 1020.5 |
| 20260509210105 | 57 | 274 | 1.7 | 2.6 | 0.00 | 0.00 | 0.00 | 99 | 1020.4 |
| 20260509205505 | 57 | 264 | 1.7 | 2.6 | 0.00 | 0.00 | 0.00 | 99 | 1020.2 |
| 20260509204905 | 57 | 248 | 0.9 | 2.6 | 0.00 | 0.00 | 0.00 | 99 | 1020.2 |
| 20260509203705 | 57 | 240 | 1.7 | 2.6 | 0.00 | 0.00 | 0.00 | 99 | 1020.0 |
| 20260509202504 | 57 | 272 | 1.7 | 2.6 | 0.00 | 0.00 | 0.00 | 99 | 1020.0 |
| 20260509201304 | 57 | 263 | 1.7 | 3.5 | 0.00 | 0.00 | 0.00 | 99 | 1019.8 |
| 20260509200704 | 58 | 257 | 1.7 | 2.6 | 0.00 | 0.00 | 0.00 | 99 | 1019.7 |
| 20260509200104 | 58 | 156 | 1.7 | 2.6 | 0.00 | 0.00 | 0.00 | 99 | 1019.6 |
| 20260509194905 | 59 | 93 | 3.5 | 5.2 | 0.00 | 0.00 | 0.00 | 98 | 1019.4 |
| 20260509194305 | 59 | 111 | 1.7 | 4.3 | 0.00 | 0.00 | 0.00 | 99 | 1019.1 |
| 20260509193705 | 59 | 147 | 1.7 | 2.6 | 0.00 | 0.00 | 0.00 | 98 | 1019.2 |
| 20260509193105 | 59 | 128 | 1.7 | 3.5 | 0.00 | 0.00 | 0.00 | 99 | 1019.2 |
| 20260509191905 | 58 | 178 | 1.7 | 2.6 | 0.00 | 0.00 | 0.00 | 99 | 1019.3 |
| 20260509191305 | 57 | 248 | 1.7 | 2.6 | 0.00 | 0.00 | 0.00 | 99 | 1019.2 |
| 20260509190705 | 57 | 254 | 1.7 | 2.6 | 0.00 | 0.00 | 0.00 | 99 | 1019.2 |
| 20260509190105 | 56 | 260 | 1.7 | 2.6 | 0.00 | 0.00 | 0.00 | 99 | 1019.2 |
| 20260509185505 | 56 | 266 | 2.6 | 3.5 | 0.00 | 0.00 | 0.00 | 99 | 1019.2 |
| 20260509184905 | 56 | 288 | 2.6 | 3.5 | 0.00 | 0.00 | 0.00 | 99 | 1019.2 |
| 20260509184305 | 57 | 282 | 1.7 | 3.5 | 0.00 | 0.00 | 0.00 | 99 | 1019.1 |
| 20260509183704 | 56 | 276 | 1.7 | 2.6 | 0.00 | 0.00 | 0.00 | 99 | 1019.0 |
| 20260509183105 | 56 | 264 | 0.9 | 2.6 | 0.00 | 0.00 | 0.00 | 99 | 1018.9 |
| 20260509182505 | 56 | 281 | 1.7 | 2.6 | 0.00 | 0.00 | 0.00 | 99 | 1018.9 |
| 20260509181905 | 56 | 283 | 1.7 | 2.6 | 0.00 | 0.00 | 0.00 | 99 | 1018.9 |
| 20260509181305 | 56 | 277 | 1.7 | 3.5 | 0.00 | 0.00 | 0.00 | 99 | 1018.7 |
| 20260509175504 | 57 | 277 | 1.7 | 2.6 | 0.00 | 0.00 | 0.00 | 99 | 1018.9 |
| 20260509174904 | 58 | 292 | 0.9 | 2.6 | 0.00 | 0.00 | 0.00 | 98 | 1018.8 |
| 20260509173704 | 58 | 284 | 0.9 | 1.7 | 0.00 | 0.00 | 0.00 | 99 | 1018.8 |
| 20260509173104 | 58 | 100 | 1.7 | 3.5 | 0.00 | 0.00 | 0.00 | 99 | 1018.8 |
| 20260509171904 | 58 | 207 | 1.7 | 2.6 | 0.00 | 0.00 | 0.00 | 99 | 1018.7 |
| 20260509171304 | 58 | 271 | 1.7 | 2.6 | 0.00 | 0.00 | 0.00 | 98 | 1018.8 |
| 20260509170705 | 58 | 268 | 1.7 | 2.6 | 0.00 | 0.00 | 0.00 | 98 | 1018.8 |
| 20260509164904 | 58 | 267 | 0.9 | 2.6 | 0.00 | 0.00 | 0.00 | 99 | 1018.8 |
| 20260509164304 | 58 | 265 | 0.9 | 1.7 | 0.00 | 0.00 | 0.00 | 99 | 1018.8 |
| 20260509162504 | 59 | 118 | 1.7 | 3.5 | 0.00 | 0.00 | 0.00 | 97 | 1019.0 |
| 20260509161904 | 60 | 116 | 2.6 | 4.3 | 0.00 | 0.00 | 0.00 | 97 | 1019.0 |
| 20260509161305 | 60 | 109 | 2.6 | 4.3 | 0.00 | 0.00 | 0.00 | 97 | 1019.1 |
| 20260509160705 | 60 | 116 | 2.6 | 4.3 | 0.00 | 0.00 | 0.00 | 98 | 1019.2 |
| 20260509155505 | 60 | 139 | 1.7 | 2.6 | 0.00 | 0.00 | 0.00 | 97 | 1019.4 |
| 20260509154904 | 59 | 191 | 0.9 | 2.6 | 0.00 | 0.00 | 0.00 | 99 | 1019.5 |
| 20260509154304 | 59 | 262 | 0.9 | 1.7 | 0.00 | 0.00 | 0.00 | 98 | 1019.5 |
| 20260509153705 | 58 | 251 | 0.9 | 1.7 | 0.00 | 0.00 | 0.00 | 99 | 1019.5 |
| 20260509153104 | 58 | 257 | 0.9 | 1.7 | 0.00 | 0.00 | 0.00 | 99 | 1019.6 |
| 20260509152504 | 58 | 255 | 0.9 | 1.7 | 0.00 | 0.00 | 0.00 | 99 | 1019.5 |
| 20260509151905 | 58 | 257 | 1.7 | 1.7 | 0.00 | 0.00 | 0.00 | 98 | 1019.6 |
| 20260509151305 | 58 | 248 | 1.7 | 1.7 | 0.00 | 0.00 | 0.00 | 98 | 1019.7 |
| 20260509150704 | 59 | 211 | 0.9 | 1.7 | 0.00 | 0.00 | 0.00 | 97 | 1019.8 |
| 20260509150104 | 60 | 128 | 1.7 | 2.6 | 0.00 | 0.00 | 0.00 | 95 | 1019.8 |
| 20260509145504 | 60 | 108 | 2.6 | 3.5 | 0.00 | 0.00 | 0.00 | 97 | 1019.7 |
| 20260509144304 | 60 | 106 | 4.3 | 7.0 | 0.00 | 0.00 | 0.00 | 99 | 1019.8 |
| 20260509143704 | 60 | 104 | 4.3 | 7.0 | 0.00 | 0.00 | 0.00 | 99 | 1019.6 |
| 20260509143104 | 60 | 106 | 3.5 | 6.1 | 0.00 | 0.00 | 0.00 | 98 | 1019.6 |
| 20260509142504 | 60 | 114 | 2.6 | 4.3 | 0.00 | 0.00 | 0.00 | 98 | 1019.9 |
| 20260509141904 | 60 | 108 | 2.6 | 4.3 | 0.00 | 0.00 | 0.00 | 98 | 1020.0 |
| 20260509141304 | 60 | 109 | 3.5 | 4.3 | 0.00 | 0.00 | 0.00 | 98 | 1020.0 |
| 20260509140104 | 60 | 104 | 2.6 | 4.3 | 0.00 | 0.00 | 0.00 | 97 | 1020.0 |
| 20260509134904 | 61 | 107 | 2.6 | 3.5 | 0.00 | 0.00 | 0.00 | 96 | 1020.0 |
| 20260509134304 | 61 | 107 | 4.3 | 6.1 | 0.00 | 0.00 | 0.00 | 97 | 1020.1 |
| 20260509133104 | 62 | 95 | 5.2 | 10.4 | 0.00 | 0.00 | 0.00 | 95 | 1020.0 |
| 20260509132505 | 62 | 108 | 3.5 | 6.1 | 0.00 | 0.00 | 0.00 | 93 | 1020.2 |
| 20260509131905 | 63 | 94 | 4.3 | 6.1 | 0.00 | 0.00 | 0.00 | 93 | 1020.1 |
| 20260509131304 | 63 | 100 | 3.5 | 6.1 | 0.00 | 0.00 | 0.00 | 91 | 1020.2 |
| 20260509130704 | 64 | 109 | 3.5 | 6.1 | 0.00 | 0.00 | 0.00 | 91 | 1020.1 |
| 20260509125505 | 65 | 105 | 5.2 | 9.6 | 0.00 | 0.00 | 0.00 | 90 | 1020.1 |
| 20260509124905 | 65 | 100 | 6.1 | 9.6 | 0.00 | 0.00 | 0.00 | 90 | 1020.1 |
| 20260509124305 | 65 | 97 | 5.2 | 9.6 | 0.00 | 0.00 | 0.00 | 89 | 1020.1 |
| 20260509123705 | 65 | 104 | 6.1 | 11.3 | 0.00 | 0.00 | 0.00 | 90 | 1020.1 |
| 20260509122505 | 65 | 86 | 7.0 | 8.7 | 0.00 | 0.00 | 0.00 | 88 | 1020.2 |
| 20260509121905 | 65 | 92 | 7.0 | 9.6 | 0.00 | 0.00 | 0.00 | 88 | 1020.2 |
| 20260509121305 | 65 | 98 | 6.1 | 9.6 | 0.00 | 0.00 | 0.00 | 90 | 1020.3 |
| 20260509120105 | 64 | 91 | 7.0 | 11.3 | 0.00 | 0.00 | 0.00 | 90 | 1020.4 |
| 20260509114905 | 63 | 83 | 7.8 | 10.4 | 0.00 | 0.00 | 0.00 | 90 | 1020.4 |
| 20260509114304 | 62 | 91 | 6.1 | 10.4 | 0.00 | 0.00 | 0.00 | 93 | 1020.6 |
| 20260509113704 | 60 | 96 | 9.6 | 9.6 | 0.00 | 0.00 | 0.00 | 92 | 1020.5 |
| 20260509113105 | 60 | 103 | 7.0 | 12.2 | 0.00 | 0.00 | 0.00 | 88 | 1020.6 |
| 20260509112505 | 60 | 101 | 7.0 | 12.2 | 0.00 | 0.00 | 0.00 | 88 | 1020.7 |
| 20260509111905 | 59 | 86 | 6.1 | 8.7 | 0.00 | 0.00 | 0.00 | 88 | 1020.7 |
| 20260509111305 | 59 | 87 | 5.2 | 7.8 | 0.00 | 0.00 | 0.00 | 88 | 1020.6 |
| 20260509110705 | 59 | 89 | 5.2 | 7.0 | 0.00 | 0.00 | 0.00 | 87 | 1020.6 |
| 20260509105505 | 59 | 94 | 4.3 | 9.6 | 0.00 | 0.00 | 0.00 | 85 | 1020.6 |
| 20260509104304 | 60 | 89 | 4.3 | 7.0 | 0.00 | 0.00 | 0.00 | 83 | 1020.5 |
| 20260509103105 | 61 | 96 | 3.5 | 6.1 | 0.00 | 0.00 | 0.00 | 85 | 1020.6 |
| 20260509102505 | 61 | 99 | 4.3 | 5.2 | 0.00 | 0.00 | 0.00 | 88 | 1020.5 |
| 20260509101304 | 60 | 102 | 5.2 | 9.6 | 0.00 | 0.00 | 0.00 | 90 | 1020.5 |
| 20260509100105 | 59 | 108 | 5.2 | 7.8 | 0.00 | 0.00 | 0.00 | 87 | 1020.3 |
| 20260509094305 | 59 | 119 | 5.2 | 8.7 | 0.00 | 0.00 | 0.00 | 83 | 1020.1 |
| 20260509093705 | 59 | 98 | 5.2 | 8.7 | 0.00 | 0.00 | 0.00 | 81 | 1020.1 |
| 20260509092504 | 59 | 110 | 4.3 | 5.2 | 0.00 | 0.00 | 0.00 | 81 | 1020.0 |
| 20260509091305 | 59 | 131 | 3.5 | 5.2 | 0.00 | 0.00 | 0.00 | 81 | 1019.9 |
| 20260509090105 | 59 | 133 | 3.5 | 5.2 | 0.00 | 0.00 | 0.00 | 81 | 1019.5 |
| 20260509085505 | 60 | 127 | 3.5 | 4.3 | 0.00 | 0.00 | 0.00 | 80 | 1019.6 |
| 20260509084304 | 60 | 119 | 3.5 | 7.8 | 0.00 | 0.00 | 0.00 | 79 | 1019.5 |
| 20260509083704 | 61 | 136 | 2.6 | 5.2 | 0.00 | 0.00 | 0.00 | 77 | 1019.4 |
| 20260509082504 | 64 | 123 | 4.3 | 6.1 | 0.00 | 0.00 | 0.00 | 67 | 1019.2 |
| 20260509081905 | 65 | 114 | 4.3 | 6.1 | 0.00 | 0.00 | 0.00 | 64 | 1019.1 |
| 20260509081305 | 66 | 111 | 4.3 | 7.8 | 0.00 | 0.00 | 0.00 | 61 | 1019.0 |
| 20260509080705 | 67 | 118 | 4.3 | 7.8 | 0.00 | 0.00 | 0.00 | 59 | 1019.0 |
| 20260509080105 | 68 | 110 | 4.3 | 7.0 | 0.00 | 0.00 | 0.00 | 57 | 1018.9 |
| 20260509074305 | 71 | 109 | 4.3 | 5.2 | 0.00 | 0.00 | 0.00 | 52 | 1018.6 |
| 20260509073705 | 71 | 115 | 5.2 | 7.8 | 0.00 | 0.00 | 0.00 | 49 | 1018.5 |
| 20260509073104 | 71 | 111 | 5.2 | 7.8 | 0.00 | 0.00 | 0.00 | 47 | 1018.6 |
| 20260509072505 | 72 | 115 | 4.3 | 6.1 | 0.00 | 0.00 | 0.00 | 45 | 1018.4 |
| 20260509071905 | 72 | 116 | 4.3 | 6.1 | 0.00 | 0.00 | 0.00 | 44 | 1018.4 |
| 20260509071304 | 73 | 113 | 4.3 | 6.1 | 0.00 | 0.00 | 0.00 | 42 | 1018.3 |
| 20260509070705 | 73 | 118 | 4.3 | 7.0 | 0.00 | 0.00 | 0.00 | 41 | 1018.2 |
| 20260509065505 | 74 | 115 | 5.2 | 7.0 | 0.00 | 0.00 | 0.00 | 39 | 1018.1 |
| 20260509064304 | 75 | 111 | 6.1 | 9.6 | 0.00 | 0.00 | 0.00 | 38 | 1018.0 |
| 20260509063704 | 75 | 109 | 6.1 | 9.6 | 0.00 | 0.00 | 0.00 | 36 | 1018.0 |
| 20260509063104 | 75 | 109 | 7.0 | 10.4 | 0.00 | 0.00 | 0.00 | 34 | 1017.8 |
| 20260509062505 | 75 | 111 | 7.0 | 13.0 | 0.00 | 0.00 | 0.00 | 33 | 1017.8 |
| 20260509061905 | 76 | 106 | 7.8 | 13.0 | 0.00 | 0.00 | 0.00 | 32 | 1017.7 |
| 20260509061305 | 76 | 108 | 7.8 | 12.2 | 0.00 | 0.00 | 0.00 | 31 | 1017.7 |
| 20260509060104 | 76 | 111 | 7.8 | 13.9 | 0.00 | 0.00 | 0.00 | 32 | 1017.6 |
| 20260509055504 | 76 | 118 | 8.7 | 12.2 | 0.00 | 0.00 | 0.00 | 32 | 1017.4 |
| 20260509054904 | 76 | 100 | 12.2 | 12.2 | 0.00 | 0.00 | 0.00 | 33 | 1017.4 |
| 20260509054304 | 76 | 100 | 12.2 | 15.6 | 0.00 | 0.00 | 0.00 | 33 | 1017.2 |
| 20260509053105 | 77 | 114 | 11.3 | 14.8 | 0.00 | 0.00 | 0.00 | 33 | 1017.2 |
| 20260509052504 | 77 | 111 | 11.3 | 14.8 | 0.00 | 0.00 | 0.00 | 33 | 1017.0 |
| 20260509051904 | 77 | 98 | 9.6 | 13.0 | 0.00 | 0.00 | 0.00 | 33 | 1017.1 |
| 20260509050704 | 78 | 104 | 8.7 | 13.0 | 0.00 | 0.00 | 0.00 | 33 | 1017.0 |
| 20260509045505 | 78 | 105 | 7.8 | 11.3 | 0.00 | 0.00 | 0.00 | 34 | 1017.0 |
| 20260509044905 | 78 | 104 | 7.8 | 11.3 | 0.00 | 0.00 | 0.00 | 35 | 1017.0 |
| 20260509043104 | 79 | 108 | 8.7 | 12.2 | 0.00 | 0.00 | 0.00 | 35 | 1017.0 |
| 20260509042505 | 78 | 94 | 7.8 | 12.2 | 0.00 | 0.00 | 0.00 | 34 | 1017.0 |
| 20260509041905 | 78 | 97 | 7.8 | 13.0 | 0.00 | 0.00 | 0.00 | 35 | 1016.9 |
| 20260509041305 | 78 | 96 | 7.8 | 13.0 | 0.00 | 0.00 | 0.00 | 35 | 1017.0 |
| 20260509040705 | 79 | 99 | 7.0 | 13.0 | 0.00 | 0.00 | 0.00 | 34 | 1017.0 |
| 20260509035505 | 79 | 97 | 7.8 | 13.9 | 0.00 | 0.00 | 0.00 | 33 | 1017.1 |
| 20260509034905 | 79 | 85 | 8.7 | 13.0 | 0.00 | 0.00 | 0.00 | 33 | 1017.3 |
| 20260509034304 | 79 | 85 | 7.8 | 12.2 | 0.00 | 0.00 | 0.00 | 33 | 1017.2 |
| 20260509033705 | 79 | 94 | 7.0 | 10.4 | 0.00 | 0.00 | 0.00 | 34 | 1017.3 |
| 20260509033105 | 79 | 90 | 7.0 | 9.6 | 0.00 | 0.00 | 0.00 | 34 | 1017.5 |
| 20260509032505 | 79 | 93 | 6.1 | 9.6 | 0.00 | 0.00 | 0.00 | 35 | 1017.5 |
| 20260509031905 | 79 | 107 | 7.8 | 13.9 | 0.00 | 0.00 | 0.00 | 33 | 1017.5 |
| 20260509030704 | 79 | 90 | 7.8 | 10.4 | 0.00 | 0.00 | 0.00 | 35 | 1017.6 |
| 20260509030104 | 78 | 88 | 7.8 | 12.2 | 0.00 | 0.00 | 0.00 | 35 | 1017.6 |
| 20260509024905 | 78 | 99 | 7.8 | 11.3 | 0.00 | 0.00 | 0.00 | 35 | 1018.0 |
| 20260509024305 | 78 | 111 | 7.0 | 13.0 | 0.00 | 0.00 | 0.00 | 36 | 1018.0 |
| 20260509023705 | 78 | 110 | 7.8 | 13.0 | 0.00 | 0.00 | 0.00 | 36 | 1018.1 |
| 20260509021904 | 78 | 111 | 6.1 | 12.2 | 0.00 | 0.00 | 0.00 | 37 | 1018.1 |
| 20260509021304 | 78 | 128 | 5.2 | 10.4 | 0.00 | 0.00 | 0.00 | 37 | 1018.4 |
| 20260509020704 | 78 | 130 | 5.2 | 7.8 | 0.00 | 0.00 | 0.00 | 38 | 1018.5 |
| 20260509020105 | 78 | 131 | 7.0 | 12.2 | 0.00 | 0.00 | 0.00 | 39 | 1018.6 |
| 20260509014905 | 77 | 99 | 8.7 | 13.0 | 0.00 | 0.00 | 0.00 | 40 | 1018.8 |
| 20260509014305 | 78 | 103 | 8.7 | 14.8 | 0.00 | 0.00 | 0.00 | 40 | 1019.0 |
| 20260509013705 | 78 | 97 | 7.8 | 14.8 | 0.00 | 0.00 | 0.00 | 39 | 1019.0 |
| 20260509013105 | 77 | 96 | 7.8 | 11.3 | 0.00 | 0.00 | 0.00 | 41 | 1019.1 |
| 20260509012505 | 77 | 102 | 7.8 | 12.2 | 0.00 | 0.00 | 0.00 | 42 | 1019.2 |
| 20260509011905 | 76 | 102 | 7.8 | 14.8 | 0.00 | 0.00 | 0.00 | 44 | 1019.3 |
| 20260509011305 | 77 | 137 | 5.2 | 8.7 | 0.00 | 0.00 | 0.00 | 41 | 1019.4 |
| 20260509010705 | 76 | 171 | 5.2 | 7.8 | 0.00 | 0.00 | 0.00 | 40 | 1019.5 |
| 20260509005504 | 76 | 178 | 6.1 | 9.6 | 0.00 | 0.00 | 0.00 | 39 | 1019.6 |
| 20260509004904 | 75 | 161 | 4.3 | 8.7 | 0.00 | 0.00 | 0.00 | 40 | 1019.6 |
| 20260509004305 | 76 | 158 | 4.3 | 7.0 | 0.00 | 0.00 | 0.00 | 40 | 1019.7 |
| 20260509003705 | 75 | 144 | 5.2 | 10.4 | 0.00 | 0.00 | 0.00 | 40 | 1019.8 |
| 20260509002505 | 75 | 157 | 3.5 | 7.8 | 0.00 | 0.00 | 0.00 | 37 | 1020.0 |
| 20260509001904 | 74 | 185 | 4.3 | 6.1 | 0.00 | 0.00 | 0.00 | 38 | 1020.0 |
| 20260509001304 | 74 | 113 | 4.3 | 8.7 | 0.00 | 0.00 | 0.00 | 38 | 1020.0 |
| 20260509000704 | 74 | 112 | 3.5 | 6.1 | 0.00 | 0.00 | 0.00 | 38 | 1020.1 |
| 20260509000105 | 73 | 167 | 4.3 | 7.0 | 0.00 | 0.00 | 0.00 | 38 | 1020.0 |
| 20260508233705 | 70 | 248 | 2.6 | 5.2 | 0.00 | 0.00 | 0.00 | 41 | 1020.0 |
| 20260508233104 | 70 | 260 | 2.6 | 5.2 | 0.00 | 0.00 | 0.00 | 41 | 1019.9 |
| 20260508231304 | 69 | 277 | 2.6 | 5.2 | 0.00 | 0.00 | 0.00 | 42 | 1020.0 |
| 20260508230704 | 68 | 266 | 2.6 | 4.3 | 0.00 | 0.00 | 0.00 | 43 | 1020.0 |
| 20260508230104 | 67 | 272 | 2.6 | 4.3 | 0.00 | 0.00 | 0.00 | 43 | 1020.0 |
| 20260508225504 | 67 | 251 | 1.7 | 2.6 | 0.00 | 0.00 | 0.00 | 43 | 1020.0 |
| 20260508224305 | 66 | 203 | 1.7 | 3.5 | 0.00 | 0.00 | 0.00 | 43 | 1019.9 |
| 20260508223705 | 66 | 225 | 1.7 | 2.6 | 0.00 | 0.00 | 0.00 | 43 | 1019.9 |
| 20260508223105 | 66 | 238 | 1.7 | 2.6 | 0.00 | 0.00 | 0.00 | 43 | 1019.8 |
| 20260508222505 | 64 | 210 | 1.7 | 2.6 | 0.00 | 0.00 | 0.00 | 45 | 1019.8 |
| 20260508221905 | 64 | 200 | 1.7 | 1.7 | 0.00 | 0.00 | 0.00 | 44 | 1019.7 |
| 20260508221304 | 63 | 216 | 1.7 | 2.6 | 0.00 | 0.00 | 0.00 | 45 | 1019.5 |
| 20260508220704 | 62 | 206 | 1.7 | 2.6 | 0.00 | 0.00 | 0.00 | 46 | 1019.5 |
| 20260508220105 | 61 | 208 | 1.7 | 2.6 | 0.00 | 0.00 | 0.00 | 48 | 1019.5 |
| 20260508215505 | 60 | 245 | 1.7 | 2.6 | 0.00 | 0.00 | 0.00 | 50 | 1019.5 |
| 20260508214905 | 59 | 250 | 1.7 | 2.6 | 0.00 | 0.00 | 0.00 | 55 | 1019.6 |
| 20260508214305 | 57 | 253 | 1.7 | 2.6 | 0.00 | 0.00 | 0.00 | 57 | 1019.5 |
| 20260508213705 | 56 | 238 | 2.6 | 2.6 | 0.00 | 0.00 | 0.00 | 65 | 1019.5 |